Volver al catálogo

SATCOM 3 DEB

LostHEO
NORAD 32991·DEBRIS·🇺🇸 United States

Lanzado Dec 7, 1979 desde Cape Canaveral Space Force Station

Loading…

Próximos Pases (próximas 24 horas)

TLE

ObsoletoSource: Space-Track

Época: Nov 1, 2023, 05:31 UTC

1 32991U 79101S   23305.22992920 -.00000148  00000-0  00000+0 0  9993
2 32991   8.6809 284.6768 4617084  93.1878 356.2073  1.79808234105514

Sigue SATCOM 3 DEB en tiempo real con AllMySat

Download on the App Store